This demonstration page uses our WeatherBlox Daily Observations layout. Learn more.

Left ArrowRight Arrow

41.12389, -100.76542

Hourly Observations for September 13, 2020

Temp ( °F °C ) Dew Point ( °F °C ) Humidity (%) Winds ( mph kmh ) Pressure ( in mb ) Visibility ( mi km ) Precip ( " mm )
12:53 am 00:53 Clear 50 10 46 7.8 86 86 WSW 5 7 30.08 1019 10 16 0.00 0.00
1:53 am 01:53 Clear 47 8.3 44 6.7 90 90 Calm 30.09 1019 10 16 0.00 0.00
2:53 am 02:53 Clear 45 7.2 42 5.6 90 90 WNW 3 6 30.10 1019 10 16 0.00 0.00
3:53 am 03:53 Clear 44 6.7 42 5.6 93 93 Calm 30.10 1019 10 16 0.00 0.00
4:31 am 04:31 Mostly Clear with Mist and Fog 43 6.1 40 4.4 89 89 WNW 3 6 30.19 1022 2 3 0.00 0.00
4:35 am 04:35 Mostly Cloudy with Mist and Fog 44 6.7 42 5.6 93 93 NW 3 6 30.18 1022 1 2 0.00 0.00
4:45 am 04:45 Mostly Clear with Mist and Fog 44 6.7 43 6.1 96 96 Calm 30.18 1022 2 2 0.00 0.00
4:49 am 04:49 Mostly Clear with Mist and Fog 43 6 43 6 100 100 Calm 30.19 1022 3 5 0.00 0.00
4:53 am 04:53 Mostly Clear 44 6.7 41 5 89 89 Calm 30.12 1020 10 16 0.00 0.00
5:36 am 05:36 Clear with Mist and Fog 44 6.7 42 5.6 93 93 WNW 3 6 30.19 1022 2 3 0.00 0.00
5:43 am 05:43 Clear with Mist and Fog 43 6.1 41 5 93 93 NW 3 6 30.20 1023 3 5 0.00 0.00
5:53 am 05:53 Clear with Mist and Fog 43 6.1 41 5 93 93 NW 3 6 30.12 1020 5 8 0.00 0.00
6:53 am 06:53 Clear 42 5.6 39 3.9 89 89 Calm 30.13 1020 10 16 0.00 0.00
7:53 am 07:53 Sunny 43 6.1 40 4.4 89 89 Calm 30.15 1021 10 16 0.00 0.00
8:53 am 08:53 Sunny 53 11.7 48 8.9 83 83 Calm 30.16 1021 10 16 0.00 0.00
9:53 am 09:53 Sunny 60 15.6 50 10 70 70 W 5 7 30.16 1021 10 16 0.00 0.00
10:53 am 10:53 Sunny 68 20 49 9.4 51 51 Calm 30.15 1021 10 16 0.00 0.00
11:53 am 11:53 Sunny 74 23.3 52 11.1 46 46 Calm 30.14 1021 10 16 0.00 0.00
12:53 pm 12:53 Sunny 81 27.2 52 11.1 37 37 VRB 3 6 30.12 1020 10 16 0.00 0.00
1:53 pm 13:53 Sunny 87 30.6 44 6.7 22 22 W 8 13 30.11 1020 10 16 0.00 0.00
2:53 pm 14:53 Sunny 87 30.6 40 4.4 19 19 SSW 5 7 30.10 1019 10 16 0.00 0.00
3:53 pm 15:53 Sunny 89 31.7 40 4.4 18 18 VRB 7 11 30.09 1019 10 16 0.00 0.00
4:53 pm 16:53 Sunny 88 31.1 41 5 19 19 VRB 3 6 30.08 1019 10 16 0.00 0.00
5:53 pm 17:53 Sunny 87 30.6 46 7.8 24 24 SSE 5 7 30.09 1019 10 16 0.00 0.00
6:53 pm 18:53 Sunny 83 28.3 51 10.6 33 33 SE 3 6 30.11 1020 10 16 0.00 0.00
7:53 pm 19:53 Sunny 70 21.1 55 12.8 59 59 ESE 3 6 30.14 1021 10 16 0.00 0.00
8:53 pm 20:53 Clear 61 16.1 51 10.6 70 70 ESE 6 9 30.15 1021 10 16 0.00 0.00
9:53 pm 21:53 Clear 59 15 47 8.3 64 64 ESE 8 13 30.17 1022 10 16 0.00 0.00
10:53 pm 22:53 Clear 57 13.9 46 7.8 67 67 Calm 30.18 1022 10 16 0.00 0.00
11:53 pm 23:53 Clear 54 12.2 45 7.2 72 72 ESE 8 13 30.19 1022 10 16 0.00 0.00

Powered by AerisWeather